Location: Ait Bougmane
(32.6250°N, 5.1528°W)
Time: 02:39:12
(UTC+00:00)

Daily predictions for brighter satellites

Satellite Brightness Start Highest point End
(mag) Time Altitude Azimuth Time Altitude Azimuth Time Altitude Azimuth
Cosmos 2322 Rocket 3.8 03:08:24 31° ENE 03:08:24 31° ENE 03:11:51 10° NE
Cosmos 2263 Rocket 3.8 03:03:09 10° N 03:08:07 30° ENE 03:13:04 10° ESE
SL-16 R/B 3.5 03:20:04 36° NE 03:20:04 36° NE 03:23:26 10° NNE
CZ-2C R/B 4.2 03:33:11 10° NE 03:37:44 31° E 03:39:59 22° SE
MSX 4.0 03:40:59 10° NNE 03:45:54 66° NNE 03:45:54 66° NNE
H-2A R/B 3.4 03:50:24 10° SE 03:54:27 39° ENE 03:58:36 10° N
Meteor 1-5 Rocket 4.1 03:50:46 10° N 04:03:52 - S 03:56:00 80° NE
Cosmos 841 Rocket 3.8 03:56:29 58° SE 03:56:59 62° ESE 04:02:10 10° NNE
Cosmos 1605 Rocket 3.9 03:51:20 10° N 03:57:45 81° W 03:58:55 62° SSW
IRIDIUM 114 4.4 03:53:24 10° N 03:58:38 73° E 03:59:29 59° SE
X-37B 3.6 03:59:50 15° NE 03:59:50 15° NE 04:01:02 10° ENE
SL-4 R/B 4.2 04:03:35 21° N 04:03:35 21° N 04:06:02 10° NNE
Cosmos 1763 Rocket 4.3 04:04:26 40° NNW 04:04:26 40° NNW 04:08:04 10° N
Cosmos 2333 Rocket 4.4 03:59:37 10° SSE 04:04:03 23° ESE 04:08:31 10° NE
IRIDIUM 103 4.2 04:02:32 10° N 04:07:46 90° E 04:08:38 64° S
CZ-4B R/B 4.5 04:17:41 10° ESE 04:19:40 16° ENE 04:21:42 10° NNE
USA 267 4.4 04:15:00 10° NNE 04:20:10 26° NNW 04:21:28 24° NW
Cosmos 540 Rocket 3.3 04:20:36 62° SW 04:21:23 75° WNW 04:26:34 10° NNE
ADEOS Rocket 3.9 04:16:53 10° SSE 04:23:32 53° ENE 04:29:31 10° N
IRIDIUM 106 4.3 04:20:56 10° N 04:26:03 58° W 04:27:01 50° SW
Cosmos 1727 Rocket 4.1 04:26:59 41° SW 04:28:38 51° W 04:34:46 10° N
ADEOS 4.3 04:24:06 10° NNE 04:29:13 53° E 04:34:17 10° S
Cosmos 2360 Rocket 2.1 04:29:26 40° SW 04:31:27 68° WNW 04:37:06 10° NNE
Cosmos 1570 Rocket 4.0 04:31:42 45° WSW 04:33:02 59° WNW 04:38:19 10° N
Cosmos 990 Rocket 3.9 04:28:46 10° NNW 04:33:54 62° WSW 04:39:03 10° S
IDEFIX/ARIANE 42P 4.3 04:30:08 10° NNW 04:32:01 17° NW 04:32:01 17° NW
PAYLOAD A 3.8 04:29:58 10° N 04:34:32 56° WNW 04:35:28 47° WSW
Cosmos 2100 Rocket 4.1 04:30:33 10° N 04:36:57 80° E 04:43:17 10° S
Skynet4D Del rocket 4.3 04:36:20 31° SW 04:37:18 34° SSW 04:42:27 10° SE
Celestis-02/Orion 38 4.5 04:32:47 10° SSE 04:38:02 67° WSW 04:43:12 10° NNW
FENGYUN 3A 4.4 04:35:09 10° NNE 04:40:26 53° E 04:45:41 10° S
deb Chang Zheng 4 3.8 04:37:26 10° NNE 04:41:41 67° ESE 04:45:54 10° S
Cosmos 44 Rocket 4.0 04:42:19 32° WNW 04:42:27 32° NW 04:46:45 10° N
ATLAS 2AS CENTAUR R/B 3.7 04:35:44 10° NNW 04:42:46 48° NE 04:49:14 10° SE
Cosmos 1459 Rocket 3.9 04:37:45 10° N 04:43:50 83° E 04:49:53 10° S
Cosmos 1802 Rocket 4.3 04:39:41 10° N 04:45:55 70° E 04:52:11 10° SSE
Okean 1 3.9 04:42:38 10° S 04:46:36 58° E 04:50:35 10° NNE
Cosmos 1484 Rocket 3.4 04:42:53 10° NNE 04:46:50 58° E 04:50:46 10° S
Cosmos 2123 Rocket 4.2 04:44:09 10° S 04:50:20 76° E 04:56:37 10° N
Cosmos 2322 Rocket 3.3 04:50:14 23° WNW 04:50:43 24° WNW 04:55:14 10° N
USA 234 3.8 04:44:31 10° ESE 04:50:53 58° NE 04:57:16 10° NW
Hubble Space Telescope 2.9 04:49:41 13° SSW 04:51:46 17° SSE 04:54:32 10° ESE
Cosmos 2263 Rocket 2.9 04:47:02 10° NW 04:51:54 30° WSW 04:56:45 10° SSW
Meteor 1-11 Rocket 3.9 04:48:10 10° NNW 04:53:34 46° W 04:58:51 10° SSW
Meteor 1-27 Rocket 4.4 04:52:37 25° WSW 04:55:03 35° WNW 05:00:24 10° NNW
BREEZE M DEB (TANK) 3.0 04:46:52 10° NW 04:56:14 85° NE 04:59:26 10° SE
Cosmos 1844 Rocket 3.6 04:51:18 10° N 04:56:49 51° ENE 05:02:17 10° SE
Cosmos 1437 Rocket 2.5 04:53:35 10° SSW 04:57:20 74° W 05:01:10 10° N
SJ-6F 4.4 04:55:07 10° N 04:59:08 60° WNW 05:03:07 10° SSW
Meteor 1-31 Rocket 3.1 04:55:32 10° NNE 04:59:21 67° E 05:03:12 10° S
SL-16 R/B 3.8 05:01:58 15° WNW 05:02:23 15° WNW 05:05:36 10° NNW
OAO 3 Rocket 4.0 05:00:45 17° SW 05:04:10 45° SSE 05:08:54 10° E
Cosmos 1536 3.5 05:05:02 10° NNW 05:08:39 31° W 05:12:14 10° SSW
Cosmos 2242 Rocket 3.5 05:06:42 10° S 05:11:05 81° W 05:15:30 10° N
CZ-4B R/B 3.6 05:08:33 10° NNE 05:12:03 49° E 05:15:31 10° S
Cosmos 372 Rocket 4.0 05:07:06 10° NNW 05:12:15 84° ENE 05:17:20 10° SSE
Cosmos 1689 Rocket 4.1 05:09:47 10° SE 05:12:27 31° ENE 05:15:08 10° N
Intercosmos 25 3.5 05:08:00 10° SSW 05:12:27 50° W 05:15:45 10° N
Cosmos 1733 Rocket 3.3 05:08:27 10° NNW 05:12:33 43° W 05:16:37 10° SSW
CZ-2C R/B 3.5 05:11:32 10° NNW 05:15:45 26° WNW 05:19:22 13° WSW
CZ-4B R/B 4.0 05:11:37 10° N 05:16:03 73° WNW 05:20:30 10° SSW
Cosmos 1898 Rocket 4.5 05:14:34 10° NW 05:18:45 24° W 05:22:58 10° SSW
Cosmos 2219 Rocket 2.2 05:14:21 10° SSW 05:19:59 77° WNW 05:25:41 10° NNE
ALOS 2.3 05:15:41 10° N 05:20:16 57° WNW 05:24:49 10° SSW
SL-8 R/B 4.4 05:16:58 15° WNW 05:20:21 34° SW 05:24:39 10° SSE
Cosmos 2173 Rocket 4.3 05:14:21 10° NNW 05:20:23 47° W 05:26:24 10° SSW
Meteor 2-4 Rocket 4.4 05:16:34 10° S 05:21:57 57° E 05:27:13 10° NNE
Delta 2 Rocket 4.1 05:19:08 11° SW 05:22:04 33° SSE 05:25:07 10° E
DELTA 4 R/B 4.3 05:15:32 13° W 05:26:24 32° SW 05:30:39 10° SSE
Cosmos 2298 Rocket 4.2 05:23:48 10° NNW 05:29:08 80° ENE 05:34:25 10° SSE
Cosmos 836 Rocket 4.4 05:24:44 10° SSW 05:29:55 80° WNW 05:35:08 10° NNE
H-2A R/B 3.7 05:28:14 10° SW 05:30:32 14° W 05:32:53 10° WNW
ERS-2 3.5 05:30:40 10° SW 05:33:17 19° W 05:35:55 10° NW
X-37B 0.6 05:32:27 10° WNW 05:35:37 70° SW 05:38:46 10° SE
Cosmos 2237 Rocket 3.5 05:32:53 10° S 05:38:14 45° ESE 05:43:34 10° NE
H-2A R/B 4.0 05:34:15 10° NNE 05:38:29 44° E 05:42:46 10° S
COSMOS 2428 2.8 05:33:03 10° SSW 05:38:41 61° WNW 05:44:21 10° NNE
PSLV R/B 4.0 05:39:20 10° SSE 05:43:22 87° ENE 05:47:27 10° NNW
Cosmos 1743 3.5 05:40:10 10° NNW 05:43:29 29° W 05:46:48 10° SSW
Cosmos 2333 Rocket 2.8 05:42:39 10° SW 05:48:01 39° WNW 05:53:23 10° N
Cosmos 1125 Rocket 3.8 05:46:22 10° NNW 05:51:39 77° ENE 05:56:52 10° SSE
Cosmos 2016 Rocket 4.4 05:46:17 10° NNW 05:51:48 37° W 05:57:19 10° SSW
